Terug naar catalogus

BALKAN-2

ActiefWetenschapSSO
NORAD 69024·PAYLOAD·🇬🇧 United Kingdom

Gelanceerd May 3, 2026 vanaf Vandenberg Space Force Base

Loading…

Volgende Passages (komende 24 uur)

TLE

VersSource: Space-Track

Epoch: Sep 14, 2026, 03:28 UTC

1 69024U 26100AW  26257.14469131  .00003904  00000-0  17988-3 0  9993
2 69024  97.3937 153.3367 0004747  62.8238 297.3481 15.20851357 20328

Volg BALKAN-2 in realtime met AllMySat

Download on the App Store